This demonstration page uses our WeatherBlox Daily Observations layout. Learn more.

Left ArrowRight Arrow

39.29038, -76.61219

Hourly Observations for October 20, 2021

Temp ( °F °C ) Dew Point ( °F °C ) Humidity (%) Winds ( mph kmh ) Pressure ( in mb ) Visibility ( mi km ) Precip ( " mm )
12:54 am 00:54 Clear 54 12.2 44 6.7 69 69 W 8 13 30.09 1019 10 16 N/A
1:54 am 01:54 Mostly Clear 54 12.2 44 6.7 69 69 W 9 15 30.09 1019 10 16 N/A
2:54 am 02:54 Partly Cloudy 56 13.3 45 7.2 67 67 W 10 17 30.09 1019 10 16 N/A
3:54 am 03:54 Mostly Cloudy 57 13.9 45 7.2 64 64 W 9 15 30.09 1019 10 16 N/A
4:54 am 04:54 Mostly Cloudy 55 12.8 44 6.7 67 67 W 7 11 30.10 1019 10 16 N/A
5:54 am 05:54 Mostly Cloudy 56 13.3 45 7.2 67 67 W 8 13 30.11 1020 10 16 N/A
6:54 am 06:54 Mostly Cloudy 58 14.4 45 7.2 62 62 WSW 9 15 30.12 1020 10 16 N/A
7:54 am 07:54 Mostly Cloudy 57 13.9 46 7.8 67 67 W 8 13 30.12 1020 10 16 N/A
8:54 am 08:54 Partly Cloudy 63 17.2 47 8.3 56 56 W 9 15 30.14 1021 10 16 N/A
9:54 am 09:54 Partly Cloudy 68 20 47 8.3 47 47 W 12 19 30.15 1021 10 16 N/A
10:54 am 10:54 Mostly Sunny 71 21.7 48 8.9 44 44 W 14 22 30.15 1021 10 16 N/A
11:54 am 11:54 Mostly Sunny 75 23.9 48 8.9 39 39 W 10 17 30.14 1021 10 16 N/A
12:54 pm 12:54 Sunny 77 25 47 8.3 35 35 WNW 10 17 30.11 1020 10 16 N/A
1:54 pm 13:54 Sunny 77 25 47 8.3 35 35 WNW 13 20 30.09 1019 10 16 N/A
2:54 pm 14:54 Sunny 78 25.6 46 7.8 32 32 W 13 20 30.08 1019 10 16 N/A
3:54 pm 15:54 Mostly Sunny 77 25 47 8.3 35 35 W 7 11 30.07 1018 10 16 N/A
4:54 pm 16:54 Sunny 76 24.4 47 8.3 36 36 WSW 10 17 30.06 1018 10 16 N/A
5:54 pm 17:54 Mostly Sunny 73 22.8 47 8.3 40 40 WSW 8 13 30.06 1018 10 16 N/A
6:54 pm 18:54 Mostly Clear 68 20 48 8.9 49 49 SW 5 7 30.07 1018 10 16 N/A
7:54 pm 19:54 Clear 63 17.2 50 10 63 63 N N/A 30.09 1019 10 16 N/A
8:54 pm 20:54 Clear 59 15 50 10 72 72 N N/A 30.08 1019 10 16 N/A
9:54 pm 21:54 Clear 59 15 50 10 72 72 S 3 6 30.08 1019 10 16 N/A
10:54 pm 22:54 Clear 57 13.9 50 10 78 78 N N/A 30.08 1019 10 16 N/A
11:54 pm 23:54 Clear 57 13.9 50 10 78 78 N N/A 30.07 1018 10 16 N/A

Powered by AerisWeather